When you browse on this site, cookies collect data to enhance your experience and personalize the content and advertising you see.
Visit our Privacy Policy to learn more. By continuing to use the site, you agree to this use of cookies and data.
  • In Romania
  • List of Countries
  • For 7 days
  • Water Temperature
  • Satellite Maps
  • Weather Map
  • Weather Widgets
  • user-avatar
    Login

    Hourly Weather Kutaisi

    Today, 25 May, Saturday

    Time Temperature Precipitation Wind Pressure Humidity
    00:00 +21°C° 0 mm 3 mps 746 mmHg 61%
    01:00 +21°C° 0 mm 4 mps 745 mmHg 58%
    02:00 +21°C° 0 mm 4 mps 745 mmHg 55%
    03:00 +21°C° 0 mm 4 mps 745 mmHg 56%
    04:00 +21°C° 0 mm 4 mps 745 mmHg 57%
    05:00 +21°C° 0 mm 4 mps 745 mmHg 58%
    06:00 +21°C° 0 mm 4 mps 744 mmHg 58%
    07:00 +23°C° 0 mm 5 mps 744 mmHg 56%
    08:00 +26°C° 0 mm 5 mps 744 mmHg 53%
    09:00 +29°C° 0 mm 5 mps 743 mmHg 49%
    10:00 +30°C° 0 mm 4 mps 743 mmHg 47%
    11:00 +31°C° 0 mm 3 mps 743 mmHg 45%
    12:00 +33°C° 0 mm 3 mps 744 mmHg 43%
    13:00 +30°C° 1 mm 3 mps 744 mmHg 56%
    14:00 +27°C° 1 mm 4 mps 744 mmHg 70%
    15:00 +22°C° 0 mm 4 mps 744 mmHg 83%
    16:00 +22°C° 0.4 mm 4 mps 745 mmHg 85%
    17:00 +21°C° 0.4 mm 3 mps 746 mmHg 86%
    18:00 +21°C° 0.4 mm 2 mps 746 mmHg 88%
    19:00 +20°C° 0.2 mm 2 mps 747 mmHg 91%
    20:00 +20°C° 0.2 mm 1 mps 747 mmHg 94%
    21:00 +19°C° 0.2 mm 1 mps 747 mmHg 97%
    22:00 +17°C° 0 mm 0 mps 748 mmHg 97%
    23:00 +16°C° 0 mm 0 mps 748 mmHg 97%

    Tomorrow, 26 May, Sunday

    Time Temperature Precipitation Wind Pressure Humidity
    00:00 +16°C° 0 mm 0 mps 748 mmHg 97%
    01:00 +16°C° 0 mm 0 mps 748 mmHg 96%
    02:00 +16°C° 0 mm 1 mps 748 mmHg 95%
    03:00 +16°C° 0 mm 1 mps 748 mmHg 94%
    04:00 +16°C° 0 mm 1 mps 748 mmHg 92%
    05:00 +18°C° 0 mm 1 mps 748 mmHg 89%
    06:00 +18°C° 0 mm 1 mps 748 mmHg 86%
    07:00 +20°C° 0 mm 1 mps 748 mmHg 79%
    08:00 +22°C° 0 mm 1 mps 747 mmHg 72%
    09:00 +24°C° 0 mm 1 mps 747 mmHg 64%
    10:00 +25°C° 0.5 mm 2 mps 747 mmHg 63%
    11:00 +25°C° 0.5 mm 3 mps 747 mmHg 62%
    12:00 +26°C° 0.5 mm 4 mps 747 mmHg 61%
    13:00 +25°C° 1.1 mm 4 mps 747 mmHg 68%
    14:00 +24°C° 1.1 mm 3 mps 747 mmHg 74%
    15:00 +22°C° 1.1 mm 3 mps 748 mmHg 81%
    16:00 +21°C° 0.7 mm 3 mps 748 mmHg 82%
    17:00 +21°C° 0.7 mm 3 mps 748 mmHg 84%
    18:00 +20°C° 0.7 mm 3 mps 749 mmHg 86%
    19:00 +19°C° 0.1 mm 2 mps 749 mmHg 89%
    20:00 +18°C° 0.1 mm 2 mps 750 mmHg 93%
    21:00 +18°C° 0.1 mm 1 mps 750 mmHg 97%
    22:00 +16°C° 0.1 mm 1 mps 751 mmHg 97%
    23:00 +16°C° 0.1 mm 1 mps 751 mmHg 97%

    Day after tomorrow, 27 May, Monday

    Time Temperature Precipitation Wind Pressure Humidity
    00:00 +16°C° 0.1 mm 1 mps 751 mmHg 96%
    01:00 +15°C° 0 mm 1 mps 751 mmHg 96%
    02:00 +15°C° 0 mm 1 mps 751 mmHg 95%
    03:00 +15°C° 0 mm 1 mps 751 mmHg 94%
    04:00 +15°C° 0 mm 1 mps 751 mmHg 93%
    05:00 +16°C° 0 mm 1 mps 751 mmHg 91%
    06:00 +16°C° 0 mm 1 mps 751 mmHg 89%
    07:00 +19°C° 0 mm 1 mps 751 mmHg 81%
    08:00 +21°C° 0 mm 1 mps 751 mmHg 73%
    09:00 +23°C° 0 mm 1 mps 751 mmHg 66%
    10:00 +23°C° 0 mm 1 mps 751 mmHg 62%
    11:00 +24°C° 0 mm 2 mps 751 mmHg 58%
    12:00 +25°C° 0 mm 3 mps 750 mmHg 54%
    13:00 +25°C° 0 mm 3 mps 750 mmHg 54%
    14:00 +26°C° 0 mm 3 mps 750 mmHg 55%
    15:00 +26°C° 0 mm 3 mps 750 mmHg 55%
    16:00 +25°C° 0 mm 3 mps 750 mmHg 60%
    17:00 +24°C° 0 mm 3 mps 750 mmHg 66%
    18:00 +23°C° 0 mm 2 mps 751 mmHg 71%
    19:00 +20°C° 0 mm 2 mps 751 mmHg 78%
    20:00 +20°C° 0 mm 1 mps 752 mmHg 85%
    21:00 +16°C° 0 mm 0 mps 752 mmHg 92%
    22:00 +16°C° 0 mm 0 mps 752 mmHg 92%
    23:00 +18°C° 0 mm 1 mps 752 mmHg 91%

    28 May, Tuesday

    Time Temperature Precipitation Wind Pressure Humidity
    00:00 +16°C° 0 mm 1 mps 752 mmHg 91%
    01:00 +16°C° 0 mm 1 mps 752 mmHg 89%
    02:00 +16°C° 0 mm 1 mps 752 mmHg 88%
    03:00 +16°C° 0 mm 2 mps 752 mmHg 87%
    04:00 +16°C° 0 mm 2 mps 752 mmHg 84%
    05:00 +17°C° 0 mm 2 mps 752 mmHg 81%
    06:00 +17°C° 0 mm 2 mps 752 mmHg 78%
    07:00 +20°C° 0 mm 2 mps 751 mmHg 68%
    08:00 +23°C° 0 mm 2 mps 751 mmHg 59%
    09:00 +26°C° 0 mm 2 mps 751 mmHg 49%
    10:00 +27°C° 0 mm 2 mps 751 mmHg 46%
    11:00 +29°C° 0 mm 2 mps 750 mmHg 42%
    12:00 +30°C° 0 mm 1 mps 750 mmHg 39%
    13:00 +30°C° 0 mm 2 mps 750 mmHg 40%
    14:00 +30°C° 0 mm 2 mps 750 mmHg 40%
    15:00 +30°C° 0 mm 2 mps 749 mmHg 41%
    16:00 +29°C° 0.1 mm 2 mps 749 mmHg 49%
    17:00 +28°C° 0.1 mm 2 mps 749 mmHg 57%
    18:00 +27°C° 0.1 mm 1 mps 750 mmHg 65%
    19:00 +25°C° 0.1 mm 1 mps 750 mmHg 70%
    20:00 +23°C° 0.1 mm 2 mps 750 mmHg 74%
    21:00 +20°C° 0.1 mm 2 mps 751 mmHg 79%
    22:00 +19°C° 0 mm 2 mps 751 mmHg 76%
    23:00 +19°C° 0 mm 2 mps 751 mmHg 73%

    29 May, Wednesday

    Time Temperature Precipitation Wind Pressure Humidity
    00:00 +19°C° 0 mm 3 mps 751 mmHg 71%
    01:00 +18°C° 0 mm 3 mps 751 mmHg 68%
    02:00 +18°C° 0 mm 3 mps 750 mmHg 65%
    03:00 +18°C° 0 mm 3 mps 750 mmHg 62%
    04:00 +19°C° 0 mm 3 mps 750 mmHg 63%
    05:00 +19°C° 0 mm 3 mps 750 mmHg 63%
    06:00 +19°C° 0 mm 3 mps 750 mmHg 64%
    07:00 +22°C° 0 mm 4 mps 749 mmHg 58%
    08:00 +25°C° 0 mm 4 mps 749 mmHg 53%
    09:00 +28°C° 0 mm 4 mps 749 mmHg 47%
    10:00 +29°C° 0 mm 4 mps 749 mmHg 44%
    11:00 +30°C° 0 mm 4 mps 748 mmHg 40%
    12:00 +33°C° 0 mm 4 mps 748 mmHg 37%
    13:00 +33°C° 0 mm 4 mps 748 mmHg 36%
    14:00 +34°C° 0 mm 4 mps 747 mmHg 35%
    15:00 +34°C° 0 mm 3 mps 747 mmHg 34%
    16:00 +33°C° 0 mm 3 mps 747 mmHg 41%
    17:00 +31°C° 0 mm 2 mps 747 mmHg 48%
    18:00 +30°C° 0 mm 1 mps 747 mmHg 55%
    19:00 +28°C° 0 mm 1 mps 748 mmHg 59%
    20:00 +25°C° 0 mm 2 mps 748 mmHg 62%
    21:00 +23°C° 0 mm 2 mps 749 mmHg 66%
    22:00 +23°C° 0 mm 2 mps 749 mmHg 66%
    23:00 +21°C° 0 mm 2 mps 749 mmHg 65%

    30 May, Thursday

    Time Temperature Precipitation Wind Pressure Humidity
    00:00 +21°C° 0 mm 3 mps 749 mmHg 65%
    01:00 +20°C° 0 mm 3 mps 749 mmHg 64%
    02:00 +20°C° 0 mm 3 mps 749 mmHg 63%
    03:00 +20°C° 0 mm 3 mps 749 mmHg 62%
    04:00 +20°C° 0 mm 3 mps 749 mmHg 63%
    05:00 +20°C° 0 mm 3 mps 749 mmHg 64%
    06:00 +20°C° 0 mm 3 mps 749 mmHg 65%
    07:00 +24°C° 0 mm 3 mps 748 mmHg 59%
    08:00 +26°C° 0 mm 3 mps 748 mmHg 53%
    09:00 +29°C° 0 mm 3 mps 748 mmHg 47%
    10:00 +30°C° 0 mm 2 mps 747 mmHg 43%
    11:00 +32°C° 0 mm 2 mps 747 mmHg 39%
    12:00 +34°C° 0 mm 2 mps 747 mmHg 34%
    13:00 +34°C° 0 mm 2 mps 747 mmHg 34%
    14:00 +34°C° 0 mm 2 mps 747 mmHg 34%
    15:00 +34°C° 0 mm 2 mps 746 mmHg 34%
    16:00 +32°C° 0 mm 2 mps 747 mmHg 42%
    17:00 +30°C° 0 mm 2 mps 747 mmHg 49%
    18:00 +29°C° 0 mm 2 mps 747 mmHg 57%
    19:00 +27°C° 0 mm 2 mps 747 mmHg 62%
    20:00 +24°C° 0 mm 1 mps 748 mmHg 67%
    21:00 +22°C° 0 mm 1 mps 748 mmHg 73%
    22:00 +22°C° 0 mm 1 mps 748 mmHg 71%
    23:00 +21°C° 0 mm 2 mps 749 mmHg 70%
    Show more